This demonstration page uses our WeatherBlox Daily Observations layout. Learn more.

Hourly Observations for July 8, 2020

Temp ( °F °C ) Dew Point ( °F °C ) Humidity (%) Winds ( mph kmh ) Pressure ( in mb ) Visibility ( mi km ) Precip ( " mm )
12:15 am 00:15 Clear 77 24.8 65 18.1 66 66 S 9 15 29.77 1008 10 16.0934 0 0
12:35 am 00:35 Clear 76 24.6 64 18 67 67 S 10 17 29.77 1008 10 16.0934 0 0
12:55 am 00:55 Clear 77 24.8 64 17.8 65 65 S 12 19 29.77 1008 10 16.0934 0 0
1:15 am 01:15 Clear 76 24.5 64 17.7 66 66 S 12 19 29.75 1007 10 16.0934 0 0
1:35 am 01:35 Clear 76 24.5 64 17.7 66 66 S 13 20 29.74 1007 10 16.0934 0 0
1:55 am 01:55 Clear 76 24.5 64 17.6 66 66 SSE 14 22 29.74 1007 10 16.0934 0 0
2:15 am 02:15 Clear 76 24.6 64 17.6 65 65 S 12 19 29.74 1007 10 16.0934 0 0
2:35 am 02:35 Clear 76 24.3 64 17.6 66 66 S 10 17 29.75 1008 10 16.0934 0 0
2:55 am 02:55 Clear 75 23.7 64 17.7 69 69 S 10 17 29.75 1007 10 16.0934 0 0
3:15 am 03:15 Clear 74 23.5 64 18 71 71 S 9 15 29.75 1007 10 16.0934 0 0
3:35 am 03:35 Clear 73 23 64 18 74 74 S 7 11 29.75 1008 10 16.0934 0 0
3:55 am 03:55 Clear 72 22.3 65 18.1 77 77 S 8 13 29.76 1008 10 16.0934 0 0
4:15 am 04:15 Clear 72 22.2 65 18.2 78 78 S 7 11 29.76 1008 10 16.0934 0 0
4:35 am 04:35 Clear 71 21.6 65 18.1 81 81 S 7 11 29.77 1008 10 16.0934 0 0
4:55 am 04:55 Clear 71 21.5 65 18.2 82 82 S 8 13 29.77 1008 10 16.0934 0 0
5:15 am 05:15 Clear 71 21.5 65 18.3 82 82 S 8 13 29.77 1008 10 16.0934 0 0
5:35 am 05:35 Clear 71 21.4 65 18.5 84 84 S 7 11 29.78 1008 10 16.0934 0 0
5:55 am 05:55 Clear 71 21.5 65 18.5 83 83 SSE 10 17 29.78 1008 10 16.0934 0 0
6:15 am 06:15 Clear 71 21.7 65 18.5 82 82 S 10 17 29.78 1009 10 16.0934 0 0
6:35 am 06:35 Sunny 71 21.5 65 18.5 83 83 S 9 15 29.8 1009 10 16.0934 0 0
6:55 am 06:55 Sunny 71 21.8 65 18.6 82 82 S 9 15 29.79 1009 10 16.0934 0 0
7:15 am 07:15 Sunny 72 22.3 66 18.7 80 80 S 10 17 29.79 1009 10 16.0934 0 0
7:35 am 07:35 Sunny 73 23 66 18.9 78 78 S 8 13 29.78 1009 10 16.0934 0 0
7:55 am 07:55 Sunny 75 23.8 66 19.1 75 75 S 9 15 29.78 1008 10 16.0934 0 0
8:15 am 08:15 Sunny 76 24.7 66 19.1 71 71 S 12 19 29.76 1008 10 16.0934 0 0
8:35 am 08:35 Sunny 78 25.5 66 19.1 68 68 S 10 17 29.75 1008 10 16.0934 0 0
8:55 am 08:55 Sunny 79 26.2 67 19.4 66 66 S 12 19 29.74 1007 10 16.0934 0 0
9:15 am 09:15 Sunny 80 26.9 66 19.1 62 62 S 15 24 29.73 1007 10 16.0934 0 0
9:35 am 09:35 Sunny 82 27.5 66 19 60 60 S 18 30 29.72 1006 10 16.0934 0 0
9:55 am 09:55 Sunny 83 28.2 67 19.2 58 58 S 16 26 29.71 1006 10 16.0934 0 0
10:15 am 10:15 Sunny 84 28.7 66 19 56 56 S 16 26 29.71 1006 10 16.0934 0 0
10:35 am 10:35 Sunny 84 29.1 66 19.1 55 55 S 17 28 29.71 1006 10 16.0934 0 0
10:55 am 10:55 Sunny 85 29.7 65 18.6 51 51 S 18 30 29.7 1006 10 16.0934 0 0
11:15 am 11:15 Sunny 87 30.5 66 18.9 50 50 S 20 31 29.68 1005 10 16.0934 0 0
11:35 am 11:35 Sunny 87 30.8 65 18.5 48 48 S 20 31 29.68 1005 10 16.0934 0 0
11:55 am 11:55 Sunny 89 31.4 65 18.6 47 47 S 18 30 29.68 1005 10 16.0934 0 0
12:15 pm 12:15 Sunny 90 32 66 18.8 45 45 SSW 17 28 29.67 1005 10 16.0934 0 0
12:35 pm 12:35 Sunny 90 32.1 65 18.5 44 44 S 16 26 29.67 1005 10 16.0934 0 0
12:55 pm 12:55 Sunny 91 32.5 65 18.3 43 43 S 16 26 29.66 1004 10 16.0934 0 0
1:15 pm 13:15 Sunny 91 32.9 65 18.3 42 42 S 17 28 29.65 1004 10 16.0934 0 0
1:35 pm 13:35 Sunny 92 33.1 64 17.8 40 40 S 20 31 29.64 1004 10 16.0934 0 0
1:55 pm 13:55 Sunny 92 33.3 64 17.9 40 40 S 16 26 29.63 1003 10 16.0934 0 0
2:15 pm 14:15 Sunny 93 33.8 65 18.3 40 40 S 17 28 29.63 1003 10 16.0934 0 0
2:35 pm 14:35 Sunny 93 33.8 65 18.3 40 40 S 15 24 29.62 1003 10 16.0934 0 0
2:55 pm 14:55 Sunny 93 34 65 18.2 39 39 SSE 17 28 29.62 1003 10 16.0934 0 0
3:15 pm 15:15 Sunny 94 34.4 65 18.2 38 38 SSE 18 30 29.61 1003 10 16.0934 0 0
3:35 pm 15:35 Sunny 93 34.1 64 18 38 38 SSE 15 24 29.6 1002 10 16.0934 0 0
3:55 pm 15:55 Sunny 93 34.1 65 18.5 40 40 SSE 15 24 29.61 1003 10 16.0934 0 0
4:15 pm 16:15 Partly Cloudy 93 33.9 67 19.7 43 43 SSE 14 22 29.6 1002 10 16.0934 0 0
4:35 pm 16:35 Partly Cloudy 94 34.2 66 18.8 40 40 SSE 17 28 29.6 1002 10 16.0934 0 0
4:55 pm 16:55 Sunny 93 33.8 67 19.7 43 43 SSE 14 22 29.59 1002 10 16.0934 0 0
5:15 pm 17:15 Partly Cloudy 93 33.9 67 19.3 42 42 SSE 15 24 29.59 1002 10 16.0934 0 0
5:35 pm 17:35 Partly Cloudy 92 33.6 67 19.7 44 44 SSE 15 24 29.58 1002 10 16.0934 0 0
5:55 pm 17:55 Partly Cloudy 92 33.2 67 19.4 44 44 SSE 17 28 29.58 1002 10 16.0934 0 0
6:15 pm 18:15 Sunny 92 33.1 68 20.1 46 46 SSE 13 20 29.59 1002 10 16.0934 0 0
6:35 pm 18:35 Sunny 91 32.7 68 20.1 47 47 SSE 14 22 29.58 1002 10 16.0934 0 0
6:55 pm 18:55 Sunny 90 32.3 67 19.4 46 46 SE 17 28 29.58 1002 10 16.0934 0 0
7:15 pm 19:15 Sunny 90 32 67 19.4 47 47 SSE 15 24 29.58 1002 10 16.0934 0 0
7:35 pm 19:35 Sunny 89 31.5 66 19 47 47 SE 15 24 29.58 1002 10 16.0934 0 0
7:55 pm 19:55 Sunny 88 31 67 19.2 49 49 SE 14 22 29.58 1002 10 16.0934 0 0
8:15 pm 20:15 Sunny 86 30.1 65 18.5 50 50 SSE 13 20 29.58 1002 10 16.0934 0 0
8:35 pm 20:35 Sunny 85 29.5 65 18.5 52 52 SSE 13 20 29.56 1001 10 16.0934 0 0
8:55 pm 20:55 Sunny 84 28.7 66 18.7 55 55 SSE 12 19 29.57 1001 10 16.0934 0 0
9:15 pm 21:15 Clear 83 28.1 66 19.1 58 58 SE 12 19 29.57 1001 10 16.0934 0 0
9:35 pm 21:35 Clear 82 27.8 66 19 59 59 SE 10 17 29.59 1002 10 16.0934 0 0
9:55 pm 21:55 Clear 81 27.1 67 19.2 62 62 SE 12 19 29.6 1002 10 16.0934 0 0
10:15 pm 22:15 Clear 81 27.2 67 19.5 63 63 SSE 12 19 29.6 1002 10 16.0934 0 0
10:35 pm 22:35 Mostly Cloudy with Nearby Thunderstorms 72 22.3 57 13.8 59 59 W 38 61 29.77 1008 5 8.0467 0 0
10:55 pm 22:55 Cloudy with Heavy Thunderstorms 64 17.5 62 16.5 94 94 W 18 30 29.85 1011 2.5 4.02335 0.48 12.192
11:15 pm 23:15 Cloudy with Thunderstorms 65 18.1 62 16.6 91 91 W 15 24 29.89 1012 5 8.0467 0.05 1.27
11:35 pm 23:35 Cloudy with Light Thunderstorms 65 18.3 62 16.8 91 91 NW 9 15 29.87 1012 10 16.0934 0.07 1.778
11:55 pm 23:55 Cloudy with Thunderstorms 66 18.8 63 17.1 90 90 N 21 33 29.86 1011 10 16.0934 0.11 2.794

Powered by AerisWeather